Location: Zagreb
(45.8000°N, 16.0000°E)
Time: 20:59:48
(UTC+01:00)

DX 1 - Pass Details

Date: 08 November 2020
Orbit: 619 x 630 km, 98.5° (Epoch: 01 December)

Event Time Altitude Azimuth Distance (km) Brightness Sun altitude
Rises 05:31:59 0° 170° (S) 2,882 ? -13.2°
Reaches altitude 10° 05:34:10 10° 173° (S) 1,980 ? -12.8°
Maximum altitude 05:38:27 71° 256° (WSW) 660 ? -12.1°
Drops below altitude 10° 05:42:47 10° 342° (NNW) 1,996 ? -11.4°
Sets 05:45:00 0° 344° (NNW) 2,908 ? -11.0°
